�����͌���@�\�w���ɂ��Y���u�C�̈ړ��ʁi�\�w���j,,,,,,,,,,
�@,Time,Time int.,,Lat.,,Long.,,Direction,Speed,
Date(yyyy/mm/dd),(hh:mm),(hour),(min),(deg),(min),(deg),(min),(deg),(m/s),(knots)
2005/11/15,9:40,0,,36,47.73,137,4.146,,,
2005/11/15,9:45,0,5,36,47.736,137,4.2,83,0.3,0.59
2005/11/15,9:50,0,5,36,47.76,137,4.26,65.9,0.36,0.7
2005/11/15,9:55,0,5,36,47.772,137,4.314,76.2,0.31,0.6
2005/11/15,10:00,0,5,36,47.772,137,4.35,90,0.21,0.41
2005/11/15,10:05,0,5,36,47.784,137,4.392,73,0.25,0.49
2005/11/15,10:10,0,5,36,47.802,137,4.458,69.1,0.38,0.73
2005/11/15,10:15,0,5,36,47.826,137,4.476,33.4,0.21,0.4
2005/11/15,10:20,0,5,36,47.838,137,4.542,74.5,0.36,0.71
2005/11/15,10:25,0,5,36,47.856,137,4.56,40,0.18,0.34
2005/11/15,10:30,0,5,36,47.856,137,4.638,85.3,0.42,0.82
2005/11/15,10:40,0,10,36,47.898,137,4.692,45.8,0.24,0.46
2005/11/15,10:45,0,5,36,47.91,137,4.704,41,0.14,0.28
2005/11/15,10:50,0,5,36,47.91,137,4.746,81.8,0.25,0.48
2005/11/15,10:55,0,5,36,47.934,137,4.776,45.2,0.26,0.5
2005/11/15,11:00,0,5,36,47.952,137,4.812,56.3,0.21,0.42
2005/11/15,11:05,0,5,36,47.976,137,4.836,37.3,0.2,0.38
2005/11/15,11:10,0,5,36,47.988,137,4.854,47.4,0.12,0.24
2005/11/15,11:15,0,5,36,48.018,137,4.89,42.8,0.26,0.51
2005/11/15,11:20,0,5,36,48.042,137,4.908,29.8,0.18,0.35
2005/11/15,11:25,0,5,36,48.06,137,4.92,26.6,0.13,0.26
2005/11/15,11:30,0,5,36,48.084,137,4.938,36.8,0.2,0.39
2005/11/15,11:35,0,5,36,48.108,137,4.956,36.8,0.2,0.39
2005/11/15,11:40,0,5,36,48.12,137,4.956,19.5,0.09,0.18


�A,Time,Time int.,,Lat.,,Long.,,Direction,Speed,
Date(yyyy/mm/dd),(hh:mm),(hour),(min),(deg),(min),(deg),(min),(deg),(m/s),(knots)
2005/11/15,12:00,0,,36,47.64,137,4.278,,,
2005/11/15,12:10,0,10,36,47.652,137,4.338,68.6,0.2,0.38
2005/11/15,12:20,0,10,36,47.658,137,4.386,70.8,0.16,0.32
2005/11/15,12:25,0,5,36,47.688,137,4.41,35.1,0.27,0.52
2005/11/15,12:30,0,5,36,47.682,137,4.428,99.4,0.13,0.25
2005/11/15,12:40,0,10,36,47.706,137,4.452,47.5,0.13,0.26
2005/11/15,12:45,0,5,36,47.736,137,4.464,26,0.22,0.43
2005/11/15,12:50,0,5,36,47.736,137,4.476,80.8,0.1,0.19
2005/11/15,12:55,0,5,36,47.754,137,4.488,37.7,0.16,0.31
2005/11/15,13:00,0,5,36,47.772,137,4.494,35.7,0.14,0.27
2005/11/15,13:05,0,5,36,47.79,137,4.506,44.6,0.16,0.3
2005/11/15,13:10,0,5,36,47.82,137,4.512,23.3,0.2,0.39
2005/11/15,13:15,0,5,36,47.826,137,4.524,71.3,0.12,0.22
2005/11/15,13:25,0,10,36,47.862,137,4.542,40.4,0.15,0.28
2005/11/15,13:30,0,5,36,47.892,137,4.536,6.2,0.19,0.36
2005/11/15,13:40,0,10,36,47.916,137,4.524,15.2,0.08,0.15
2005/11/15,13:45,0,5,36,47.94,137,4.512,356.3,0.15,0.29
2005/11/15,13:50,0,5,36,47.97,137,4.494,348,0.19,0.37
2005/11/15,13:55,0,5,36,48.006,137,4.464,336,0.24,0.47
2005/11/15,14:05,0,5,36,48.024,137,4.434,318.3,0.15,0.29
2005/11/15,14:10,0,5,36,48.06,137,4.398,329.9,0.26,0.5
2005/11/15,14:15,0,5,36,48.102,137,4.35,324,0.32,0.62
2005/11/15,14:20,0,5,36,48.108,137,4.332,313.2,0.05,0.11
2005/11/15,14:25,0,5,36,48.156,137,4.29,331.9,0.34,0.65
2005/11/15,14:30,0,5,36,48.186,137,4.26,331.9,0.21,0.41
2005/11/15,14:35,0,5,36,48.258,137,4.236,351.2,0.45,0.87


,Time,Time int.,,Lat.,,Long.,,Direction,Speed,
Date(yyyy/mm/dd),(hh:mm),(hour),(min),(deg),(min),(deg),(min),(deg),(m/s),(knots)
2005/11/15,9:45,0,,36,47.658,137,4.254,,,
2005/11/15,9:50,0,5,36,47.658,137,4.32,90.1,0.36,0.7
2005/11/15,9:55,0,5,36,47.664,137,4.374,83,0.3,0.59
2005/11/15,10:00,0,5,36,47.664,137,4.422,90,0.27,0.53
2005/11/15,10:05,0,5,36,47.682,137,4.476,69.8,0.32,0.62
2005/11/15,10:10,0,5,36,47.706,137,4.512,49.7,0.26,0.51
2005/11/15,10:15,0,5,36,47.718,137,4.566,71.5,0.31,0.6
2005/11/15,10:20,0,5,36,47.73,137,4.602,64.3,0.22,0.44
2005/11/15,10:25,0,5,36,47.742,137,4.65,69.6,0.28,0.54
2005/11/15,10:30,0,5,36,47.76,137,4.68,51.6,0.23,0.46
2005/11/15,10:35,0,5,36,47.772,137,4.716,63,0.24,0.47
2005/11/15,10:40,0,5,36,47.796,137,4.752,49.4,0.28,0.55
2005/11/15,10:45,0,5,36,47.814,137,4.794,59.1,0.28,0.55
2005/11/15,10:50,0,5,36,47.832,137,4.836,59.1,0.28,0.55
2005/11/15,10:55,0,5,36,47.856,137,4.842,19.6,0.19,0.38
2005/11/15,11:00,0,5,36,47.88,137,4.878,48.9,0.24,0.46
2005/11/15,11:05,0,5,36,47.898,137,4.908,51.3,0.19,0.37
2005/11/15,11:10,0,5,36,47.934,137,4.944,37.8,0.29,0.57
2005/11/15,11:15,0,5,36,47.952,137,4.962,36.9,0.15,0.29
2005/11/15,11:20,0,5,36,47.97,137,4.98,36.9,0.15,0.29
2005/11/15,11:25,0,5,36,47.994,137,4.998,29.8,0.18,0.35
2005/11/15,11:30,0,5,36,48.006,137,5.028,64.3,0.2,0.39
2005/11/15,11:35,0,5,36,48.036,137,5.052,37.2,0.25,0.48
2005/11/15,11:40,0,5,36,48.066,137,5.046,0.3,0.2,0.38
2005/11/15,11:45,0,5,36,48.078,137,5.058,46.2,0.13,0.24


�C,Time,Time int.,,Lat.,,Long.,,Direction,Speed,
Date(yyyy/mm/dd),(hh:mm),(hour),(min),(deg),(min),(deg),(min),(deg),(m/s),(knots)
2005/11/15,12:00,0,,36,47.688,137,4.164,,,
2005/11/15,12:05,0,5,36,47.682,137,4.212,90.4,0.27,0.53
2005/11/15,12:10,0,5,36,47.712,137,4.278,58.8,0.42,0.82
2005/11/15,12:15,0,5,36,47.718,137,4.32,73.5,0.25,0.49
2005/11/15,12:20,0,5,36,47.748,137,4.362,47.9,0.33,0.64
2005/11/15,12:25,0,5,36,47.766,137,4.392,51.6,0.23,0.46
2005/11/15,12:30,0,5,36,47.778,137,4.398,37.2,0.11,0.22
2005/11/15,12:35,0,5,36,47.814,137,4.434,42.4,0.32,0.63
2005/11/15,12:40,0,5,36,47.844,137,4.446,26,0.22,0.43
2005/11/15,12:45,0,5,36,47.874,137,4.452,18.8,0.21,0.41
2005/11/15,12:50,0,5,36,47.91,137,4.464,22.4,0.26,0.5
2005/11/15,12:55,0,5,36,47.934,137,4.476,30.9,0.19,0.37
2005/11/15,13:00,0,5,36,47.952,137,4.464,355,0.11,0.22
2005/11/15,13:05,0,5,36,47.994,137,4.464,10.9,0.26,0.51
2005/11/15,13:10,0,5,36,48.018,137,4.452,356.3,0.15,0.29
2005/11/15,13:15,0,5,36,48.042,137,4.446,7.8,0.15,0.29
2005/11/15,13:20,0,5,36,48.078,137,4.44,5.2,0.22,0.43
2005/11/15,13:30,0,10,36,48.09,137,4.41,326.4,0.04,0.09
2005/11/15,13:35,0,5,36,48.174,137,4.362,340.1,0.55,1.07
2005/11/15,13:40,0,5,36,48.21,137,4.326,329.9,0.26,0.5
2005/11/15,13:50,0,10,36,48.204,137,4.26,260.9,0.12,0.22
2005/11/15,13:55,0,5,36,48.27,137,4.218,338.8,0.44,0.85
2005/11/15,14:00,0,5,36,48.288,137,4.188,318.3,0.15,0.29
